Weather in Yaan

China     29°59′44″N   103°00′22″E
temp.,
°C
wind,
m/s
gust,
m/s
humid.,
%
clouds,
%
prec.,
mm/h
press.,
hPa
HPBL,
m
10 may, mon
mon1023:00+19sw2390100 0.4 100459
02:00+18sw1193100 2.1 100327
05:00+17w2293100 0.3 100332
08:00+19wsw128436 0.3 1003143
11:00+23ene226714 4.3 1003725
14:00+23ene347235 8.3 1001988
17:00+20ne3586100 6.1 1002626
20:00+19nne1187100 7.4 100312
11 may, tue
tue1123:00+18ese0186100 0.6 100613
02:00+17ssw219397 1.4 100533
05:00+16wsw1192100 0.0 100512
08:00+17w1190100 0.0 100714
11:00+19wsw1183100 0.0 1008192
14:00+19nw1184100 0.1 1007216
17:00+21wsw0167100 0.1 1006414
20:00+18nne0182100 0.1 100711
12 may, wed
wed1223:00+17w118599 0.0 100911
02:00+16w1188100 0.0 100814
05:00+15wsw218857 0.0 100815
08:00+17w1179100 0.0 1008129
11:00+23e1161100 0.0 1007854
14:00+24e2258100 0.0 10041396
17:00+23e2261100 0.0 10031110
20:00+19se117872 0.0 100411
13 may, thu
thu1323:00+19wsw117996 0.0 100513
02:00+18sw128586 0.0 100331
05:00+18wsw1185100 0.0 100318
08:00+19wsw1183100 0.0 100438
11:00+23se116579 0.1 1003747
14:00+25e225744 0.3 10001450
17:00+24e226052 0.1 9991217
20:00+21ene0176100 0.3 100011
14 may, fri
fri1423:00+19wsw118477 0.0 100113
02:00+18w118760 0.0 100116
05:00+19nnw1185100 0.1 100014
08:00+19nw0087100 0.1 100220
11:00+19ene0188100 0.1 1003147
14:00+22nne127496 0.1 1001679
17:00+23ene2273100 2.7 999723
20:00+20s1190100 7.3 100112